255 visiteurs
Prévisions de votre ville :
Vigilance : 39 départements 1 département Mise à jour le 19/10/2019 à 16:08 - Voir la carte

Paris Roissy CDG (95380) le 20/10/2019 à 02:00 Choisir station

11.7°C 95 % N Rafales 6 km/h
Vit. moyenne 2 kmh/h

Relevés météo quotidiens pour la station de :

UTC
S: Synop
M: Metar
Loc T°C
(°C)
Td
(°C)
HR
(%)
Vis
(km)
Néb
(octa)
Vent
(km/h)
Pression
(mb)
Précipitations
(mm)
Temps
              MOY
10 min
DIR RAF 1h MESURE VAR SUR 3h    
S 00 h 02h 23.5 16.3 64 27 - 7 15 1016.5 -0.2/3h 0.0/6h - 0.0/3h -
S 01 h 03h 22.6 15.9 66 24 - 7 13 1016.1 -0.7/3h 0.0/1h -
S 02 h 04h 21.6 15.9 70 25 - 11 17 1015.9 -1.0/3h 0.0/1h -
M 03 h 05h 21 16 73 >=10 - 11 - 1015 -/3h -
S 04 h 06h 21.3 15.4 69 23 - 6 13 1016.3 +0.1/3h 0.0/1h -
S 05 h 07h 21.0 15.1 69 24 - 9 15 1016.5 +0.6/3h 0.0/1h -
S 06 h 08h 24.4 15.3 57 21 - 7 20 1016.5 +0.7/3h 0.0/12h - 0.0/3h - 0.0/24h -
S 07 h 09h 29.7 15.4 42 19 - 6 15 1016.2 0.0/3h 0.0/1h -
S 08 h 10h 30.4 16.8 44 19 - 7 15 1016.0 -0.4/3h 0.0/1h -
S 09 h 11h 29.8 20.4 57 19 - 13 19 1016.3 -0.2/3h 0.0/3h -
S 10 h 12h 30.7 20.3 54 25 - 17 24 1016.3 +0.1/3h 0.0/1h -
S 11 h 13h 30.4 21.8 60 19 - 20 30 1016.2 +0.2/3h 0.0/1h -
S 12 h 14h 29.6 22.6 66 15 - 20 30 1016.2 +0.1/3h 0.0/6h - 0.0/3h -
S 13 h 15h 30.3 23.7 68 13 - 19 26 1016.0 -0.3/3h 0.0/1h -
S 14 h 16h 29.9 24.3 72 11 - 19 26 1015.8 -0.4/3h 0.0/1h -
S 15 h 17h 30.5 23.4 66 15 - 17 26 1015.4 -0.8/3h 0.0/3h -
S 16 h 18h 30.4 23.6 67 16 - 13 26 1015.1 -0.9/3h 0.0/1h -
S 17 h 19h 30.7 22.0 60 19 - 9 19 1014.7 -1.1/3h 0.0/1h -
S 18 h 20h 31.2 20.8 54 40 - 4 15 1014.9 -0.5/3h 0.0/12h - 0.0/3h -
S 19 h 21h 27.7 22.4 73 18 - 2 9 1015.2 +0.1/3h 0.0/1h -
S 20 h 22h 27.5 20.8 67 23 - 11 19 1015.4 +0.7/3h 0.0/1h -
S 21 h 23h 27.1 15.8 50 35 - 13 19 1015.6 +0.7/3h 0.0/3h -
S 22 h 00h 26.5 14.9 49 35 - 7 15 1015.6 +0.4/3h 0.0/1h -
S 23 h 01h 24.0 15.2 58 50 - 11 15 1015.6 +0.2/3h 0.0/1h -
evolution des temperatures
cumul des precipitations
vent moyen et rafales
pression atmospherique

Un tiret (-) signifie que les données ne sont pas disponibles.

Passez la souris sur les pictos temps pour avoir plus de précisions. Passez les flèches sur l'icône de la direction du vent pour voir la direction précise en degrés.

Les données de l'heure en cours sont disponibles à partir de H+15 minutes.


S signifie station Synop, plus complète qu'une station Metar (M). Il y a +1h de différence entre l'heure UTC et l'heure légale en hiver et +2h en été.

Td est la mesure du point de rosée.

HR est l'humidité relative/p>

Vis est la visibilité

Néb est la nébulosité du ciel (couverture nuageuse) exprimée en octas (de 0/8 à 8/8).

Vent moy 10 min donne le vent moyen sur les 10 minutes qui précèdent le relevé.

Vent raf 1h donne la rafale maximale mesurée dans l'heure qui précède le relevé.


Les données les plus anciennes remontent à avril 2014.

Les données présentées sur cette page proviennent des stations météo officielles. Les relevés sont effectués aux normes en vigueur (anémomètre à 10m de haut, thermomètre sous abri normalisé à 2m du sol...)

Météo 60 décline toute responsabilité en cas d'absence de données, d'erreurs, de mauvaise utilisation ou interprétation et n'est pas habilité à fournir des certificats intempéries.